Location: Dealu Mare
(46.0500°N, 22.8167°E)
Time: 23:34:43
(UTC+00:00)

Cosmos 921 Rocket - Pass Details

Date: 15 January 2026
Orbit: 564 x 620 km, 75.8° (Epoch: 13 February)

Event Time Altitude Azimuth Distance (km) Brightness Sun altitude
Rises 04:49:47 0° 220° (SW) 2,836 6.2 -13.1°
Reaches altitude 10° 04:52:10 10° 230° (SW) 1,928 5.3 -12.7°
Maximum altitude 04:56:05 34° 296° (WNW) 978 3.5 -12.0°
Drops below altitude 10° 04:59:59 10° 2° (N) 1,909 5.4 -11.4°
Sets 05:02:21 0° 12° (NNE) 2,803 6.4 -11.0°
